TimeMST,TemperatureF,Dew PointF,Humidity,Sea Level PressureIn,VisibilityMPH,Wind Direction,Wind SpeedMPH,Gust SpeedMPH,PrecipitationIn,Events,Conditions,WindDirDegrees,DateUTC
12:53 AM,35.1,27.0,72,29.91,10.0,South,12.7,-,N/A,,Clear,170,2012-11-30 07:53:00
1:53 AM,36.0,27.0,70,29.88,10.0,South,11.5,-,N/A,,Clear,180,2012-11-30 08:53:00
2:53 AM,35.1,27.0,72,29.88,10.0,SSE,10.4,-,N/A,,Clear,160,2012-11-30 09:53:00
3:53 AM,37.0,26.1,65,29.86,10.0,Variable,4.6,-,N/A,,Clear,0,2012-11-30 10:53:00
4:53 AM,41.0,25.0,53,29.88,10.0,SW,8.1,-,N/A,,Clear,220,2012-11-30 11:53:00
5:53 AM,39.9,27.0,60,29.89,10.0,Variable,3.5,-,N/A,,Clear,0,2012-11-30 12:53:00
6:53 AM,42.1,28.0,58,29.86,10.0,SSW,10.4,17.3,N/A,,Clear,210,2012-11-30 13:53:00
7:53 AM,43.0,28.0,56,29.83,10.0,SSW,20.7,27.6,N/A,,Clear,200,2012-11-30 14:53:00
8:53 AM,44.1,30.0,58,29.80,10.0,SSW,18.4,25.3,N/A,,Clear,210,2012-11-30 15:53:00
9:53 AM,48.0,30.0,50,29.78,10.0,SW,26.5,33.4,N/A,,Clear,220,2012-11-30 16:53:00
10:53 AM,52.0,32.0,47,29.74,10.0,SW,26.5,36.8,N/A,,Clear,220,2012-11-30 17:53:00
11:53 AM,51.1,30.9,46,29.72,10.0,SSW,26.5,36.8,N/A,,Clear,210,2012-11-30 18:53:00
12:53 PM,52.0,30.9,45,29.70,10.0,SW,24.2,31.1,N/A,,Clear,220,2012-11-30 19:53:00
1:53 PM,53.1,32.0,45,29.65,10.0,SSW,21.9,31.1,N/A,,Clear,210,2012-11-30 20:53:00
2:53 PM,55.9,32.0,40,29.59,10.0,SSW,28.8,35.7,N/A,,Clear,210,2012-11-30 21:53:00
3:53 PM,55.0,30.9,40,29.61,10.0,SSW,26.5,35.7,N/A,,Clear,210,2012-11-30 22:53:00
4:53 PM,52.0,30.9,45,29.62,10.0,SSW,24.2,34.5,N/A,,Clear,210,2012-11-30 23:53:00
5:53 PM,51.1,30.0,44,29.65,10.0,SW,24.2,34.5,N/A,,Clear,230,2012-12-01 00:53:00
6:53 PM,50.0,30.0,46,29.66,10.0,SW,20.7,28.8,N/A,,Clear,230,2012-12-01 01:53:00
7:53 PM,48.9,30.0,48,29.65,10.0,SW,23.0,-,N/A,,Clear,230,2012-12-01 02:53:00
8:53 PM,48.9,30.9,50,29.66,10.0,SW,24.2,29.9,N/A,,Clear,230,2012-12-01 03:53:00
9:53 PM,48.0,30.9,52,29.68,10.0,SW,21.9,29.9,N/A,,Clear,230,2012-12-01 04:53:00
10:53 PM,48.9,30.9,50,29.66,10.0,SW,19.6,-,N/A,,Mostly Cloudy,230,2012-12-01 05:53:00
11:53 PM,48.0,30.9,52,29.66,10.0,SW,16.1,-,N/A,,Partly Cloudy,230,2012-12-01 06:53:00